TimeEDT,TemperatureF,Dew PointF,Humidity,Sea Level PressureIn,VisibilityMPH,Wind Direction,Wind SpeedMPH,Gust SpeedMPH,PrecipitationIn,Events,Conditions,WindDirDegrees,DateUTC
12:15 AM,28.4,8.6,43,30.16,10.0,Calm,Calm,-,N/A,,Clear,0,2014-03-25 04:15:00
12:35 AM,28.4,8.6,43,30.16,10.0,ESE,3.5,-,N/A,,Clear,110,2014-03-25 04:35:00
12:55 AM,26.6,8.6,47,30.15,10.0,ESE,3.5,-,N/A,,Clear,110,2014-03-25 04:55:00
1:15 AM,26.6,8.6,47,30.15,10.0,SE,5.8,-,N/A,,Clear,130,2014-03-25 05:15:00
1:35 AM,26.6,10.4,51,30.15,10.0,SE,5.8,-,N/A,,Clear,130,2014-03-25 05:35:00
1:55 AM,26.6,10.4,51,30.14,10.0,SE,4.6,-,N/A,,Clear,130,2014-03-25 05:55:00
2:15 AM,26.6,10.4,51,30.14,10.0,SE,5.8,-,N/A,,Clear,130,2014-03-25 06:15:00
2:35 AM,26.6,10.4,51,30.14,10.0,SE,4.6,-,N/A,,Clear,130,2014-03-25 06:35:00
2:55 AM,26.6,10.4,51,30.14,10.0,SE,4.6,-,N/A,,Partly Cloudy,140,2014-03-25 06:55:00
3:15 AM,26.6,12.2,55,30.13,10.0,SE,4.6,-,N/A,,Scattered Clouds,130,2014-03-25 07:15:00
3:35 AM,26.6,12.2,55,30.12,10.0,SE,4.6,-,N/A,,Clear,130,2014-03-25 07:35:00
3:55 AM,24.8,12.2,59,30.11,10.0,SE,4.6,-,N/A,,Clear,140,2014-03-25 07:55:00
4:15 AM,26.6,14.0,59,30.11,10.0,Calm,Calm,-,N/A,,Clear,0,2014-03-25 08:15:00
4:35 AM,24.8,14.0,64,30.10,10.0,Calm,Calm,-,N/A,,Partly Cloudy,0,2014-03-25 08:35:00
4:55 AM,24.8,14.0,64,30.09,10.0,Calm,Calm,-,N/A,,Scattered Clouds,0,2014-03-25 08:55:00
5:15 AM,26.6,15.8,64,30.09,10.0,Calm,Calm,-,N/A,,Overcast,0,2014-03-25 09:15:00
5:35 AM,26.6,15.8,64,30.08,10.0,Calm,Calm,-,N/A,,Overcast,0,2014-03-25 09:35:00
5:55 AM,26.6,15.8,64,30.08,10.0,Calm,Calm,-,N/A,,Partly Cloudy,0,2014-03-25 09:55:00
6:15 AM,28.4,15.8,59,30.07,10.0,ESE,4.6,-,N/A,,Clear,110,2014-03-25 10:15:00
6:35 AM,26.6,17.6,69,30.08,10.0,ESE,3.5,-,N/A,,Mostly Cloudy,120,2014-03-25 10:35:00
6:55 AM,28.4,17.6,64,30.08,10.0,East,3.5,-,N/A,,Overcast,100,2014-03-25 10:55:00
7:15 AM,28.4,17.6,64,30.08,10.0,Calm,Calm,-,N/A,,Overcast,0,2014-03-25 11:15:00
7:35 AM,28.4,17.6,64,30.07,10.0,ENE,3.5,-,N/A,,Overcast,70,2014-03-25 11:35:00
7:55 AM,28.4,17.6,64,30.07,10.0,Calm,Calm,-,N/A,,Overcast,0,2014-03-25 11:55:00
8:15 AM,28.4,19.4,69,30.08,7.0,SE,3.5,-,N/A,,Overcast,140,2014-03-25 12:15:00
8:35 AM,28.4,21.2,74,30.08,1.2,Calm,Calm,-,N/A,,Overcast,0,2014-03-25 12:35:00
8:55 AM,28.4,24.8,86,30.08,0.5,ESE,3.5,-,N/A,,Overcast,110,2014-03-25 12:55:00
9:15 AM,28.4,24.8,86,30.07,0.5,SE,4.6,-,N/A,,Overcast,130,2014-03-25 13:15:00
9:35 AM,28.4,24.8,86,30.07,0.8,ESE,4.6,-,N/A,,Overcast,120,2014-03-25 13:35:00
9:55 AM,28.4,24.8,86,30.07,0.8,SE,6.9,-,0.01,,Overcast,130,2014-03-25 13:55:00
10:15 AM,28.4,26.6,93,30.07,0.5,ESE,8.1,-,0.01,,Overcast,120,2014-03-25 14:15:00
10:35 AM,30.2,26.6,86,30.06,0.8,ESE,8.1,-,0.02,,Overcast,120,2014-03-25 14:35:00
10:55 AM,30.2,26.6,86,30.06,0.8,ESE,11.5,-,0.03,,Overcast,120,2014-03-25 14:55:00
11:15 AM,30.2,26.6,86,30.05,0.8,ESE,10.4,-,N/A,,Overcast,120,2014-03-25 15:15:00
11:35 AM,30.2,26.6,86,30.04,0.8,ESE,10.4,-,0.01,,Overcast,110,2014-03-25 15:35:00
11:55 AM,30.2,26.6,86,30.03,0.8,ESE,8.1,-,0.02,,Overcast,110,2014-03-25 15:55:00
12:15 PM,30.2,26.6,86,30.03,0.8,ESE,5.8,-,0.02,,Overcast,110,2014-03-25 16:15:00
12:35 PM,30.2,26.6,86,30.01,0.8,ENE,5.8,-,0.03,,Overcast,70,2014-03-25 16:35:00
12:55 PM,30.2,26.6,86,30.00,0.8,East,4.6,-,0.05,,Overcast,100,2014-03-25 16:55:00
1:15 PM,30.2,26.6,86,29.99,0.5,East,6.9,-,0.01,,Overcast,100,2014-03-25 17:15:00
1:35 PM,30.2,26.6,86,29.98,0.5,East,5.8,-,0.02,,Overcast,100,2014-03-25 17:35:00
1:55 PM,30.2,28.4,93,29.97,0.8,ENE,4.6,-,0.03,,Overcast,70,2014-03-25 17:55:00
2:15 PM,30.2,28.4,93,29.96,0.5,ENE,4.6,-,0.01,,Overcast,70,2014-03-25 18:15:00
2:35 PM,32.0,28.4,87,29.94,0.8,ESE,8.1,-,0.02,,Overcast,110,2014-03-25 18:35:00
2:55 PM,32.0,28.4,87,29.93,1.0,East,3.5,-,0.04,,Overcast,90,2014-03-25 18:55:00
3:15 PM,32.0,28.4,87,29.91,1.0,ENE,5.8,-,0.01,,Overcast,60,2014-03-25 19:15:00
3:35 PM,32.0,28.4,87,29.90,1.8,NE,4.6,-,0.02,,Overcast,50,2014-03-25 19:35:00
3:55 PM,32.0,28.4,87,29.89,1.0,NE,5.8,-,0.03,,Overcast,40,2014-03-25 19:55:00
4:15 PM,32.0,28.4,87,29.89,1.2,NE,3.5,-,0.01,,Overcast,50,2014-03-25 20:15:00
4:35 PM,32.0,28.4,87,29.89,1.0,NNE,3.5,-,0.01,,Overcast,20,2014-03-25 20:35:00
4:55 PM,32.0,28.4,87,29.89,1.0,Calm,Calm,-,0.02,,Overcast,0,2014-03-25 20:55:00
5:15 PM,32.0,28.4,87,29.88,1.5,NE,3.5,-,0.01,,Overcast,40,2014-03-25 21:15:00
5:35 PM,32.0,28.4,87,29.88,1.2,NNE,4.6,-,0.01,,Overcast,20,2014-03-25 21:35:00
5:55 PM,32.0,28.4,87,29.89,3.0,NNE,4.6,-,0.01,,Overcast,20,2014-03-25 21:55:00
6:15 PM,32.0,28.4,87,29.89,1.5,NE,3.5,-,0.01,,Overcast,40,2014-03-25 22:15:00
6:35 PM,32.0,28.4,87,29.89,2.5,North,3.5,-,0.01,,Overcast,10,2014-03-25 22:35:00
6:55 PM,32.0,28.4,87,29.89,1.2,North,3.5,-,0.02,,Overcast,360,2014-03-25 22:55:00
7:15 PM,32.0,28.4,87,29.90,1.2,Calm,Calm,-,N/A,,Overcast,0,2014-03-25 23:15:00
7:35 PM,30.2,28.4,93,29.90,1.8,Calm,Calm,-,N/A,,Overcast,0,2014-03-25 23:35:00
7:55 PM,30.2,28.4,93,29.90,2.5,Calm,Calm,-,N/A,,Mostly Cloudy,0,2014-03-25 23:55:00
8:15 PM,30.2,28.4,93,29.90,4.0,North,3.5,-,N/A,,Scattered Clouds,350,2014-03-26 00:15:00
8:35 PM,30.2,26.6,86,29.90,4.0,North,3.5,-,N/A,,Mostly Cloudy,360,2014-03-26 00:35:00
8:55 PM,30.2,26.6,86,29.90,6.0,Calm,Calm,-,N/A,,Partly Cloudy,0,2014-03-26 00:55:00
9:15 PM,30.2,26.6,86,29.91,5.0,NNW,3.5,-,N/A,,Clear,330,2014-03-26 01:15:00
9:35 PM,28.4,26.6,93,29.92,5.0,Calm,Calm,-,N/A,,Clear,0,2014-03-26 01:35:00
9:55 PM,28.4,26.6,93,29.92,5.0,Calm,Calm,-,N/A,,Clear,0,2014-03-26 01:55:00
10:15 PM,28.4,26.6,93,29.92,5.0,Calm,Calm,-,N/A,,Clear,0,2014-03-26 02:15:00
10:35 PM,28.4,26.6,93,29.92,5.0,Calm,Calm,-,N/A,,Clear,0,2014-03-26 02:35:00
10:55 PM,28.4,24.8,86,29.92,4.0,Calm,Calm,-,N/A,,Clear,0,2014-03-26 02:55:00
11:15 PM,28.4,24.8,86,29.92,5.0,NW,3.5,-,N/A,,Clear,320,2014-03-26 03:15:00
11:35 PM,28.4,24.8,86,29.92,3.0,Calm,Calm,-,N/A,,Clear,0,2014-03-26 03:35:00
11:55 PM,26.6,23.0,86,29.92,2.0,NW,3.5,-,N/A,,Clear,310,2014-03-26 03:55:00